Regional Weather Roundup
Issued by NWS

Home | Current Version | Previous Version | Text Only | Print | Product List | Glossary Off
Versions: 1 2 3 4 5 6 7 8 9 10 11 12 13 14 15 16 17 18 19 20 21 22 23 24 25 26 27

000
ASUS45 KCYS 170010
RWRWY

WYOMING REGIONAL WEATHER ROUNDUP
NATIONAL WEATHER SERVICE CHEYENNE WY
500 PM MST THU NOV 16 2017

NOTE:  "FAIR" INDICATES FEW OR NO CLOUDS BELOW 12,000 FEET
WITH NO SIGNIFICANT WEATHER AND/OR OBSTRUCTIONS TO VISIBILITY.

WYZ001-170100-
YELLOWSTONE NATIONAL PARK

CITY           SKY/WX    TMP DP  RH WIND       PRES   REMARKS
LK YELLOWSTONE   N/A     32  31  96 W9        29.69S WCI  24
6HR MIN TEMP:  32; 6HR MAX TEMP:  34; 6HR PCP:  0.35;

W YELLOWSTONE  NOT AVBL

$$
WYZ002>013-054>058-071-098>099-170100-
NORTHERN WYOMING

CITY           SKY/WX    TMP DP  RH WIND       PRES   REMARKS
JACKSON        LGT RAIN  37  35  92 S13       29.69S WCI  29
CODY           LGT RAIN  44  36  73 CALM      29.58R
GREYBULL       FAIR      52  33  48 NW8       29.52R
6HR MIN TEMP:  52; 6HR MAX TEMP:  64;

WORLAND        FAIR      54  33  45 S12       29.54S
6HR MIN TEMP:  54; 6HR MAX TEMP:  64;

SHERIDAN       FAIR      60  32  34 SW16G23   29.50R
6HR MIN TEMP:  60; 6HR MAX TEMP:  67;

BUFFALO        MOCLDY    57  30  35 SW25      29.58R
6HR MIN TEMP:  57; 6HR MAX TEMP:  66;

GILLETTE       FAIR      60  29  30 SW28G33   29.53S
6HR MIN TEMP:  59; 6HR MAX TEMP:  66;

HULETT         FAIR      61  30  31 SW13G26   29.54R
NEWCASTLE      FAIR      59  25  27 W5        29.60F

$$
WYZ014>020-022>026-101>103-170100-
CENTRAL WYOMING

CITY           SKY/WX    TMP DP  RH WIND       PRES   REMARKS
BIG PINEY      MOCLDY    39  32  76 S6        29.78F WCI  35
6HR MIN TEMP:  39; 6HR MAX TEMP:  50;

PINEDALE       MOCLDY    37  32  81 SW3       29.79S
DUBOIS         CLOUDY    36  32  87 W13       29.66F WCI  27
LANDER         FAIR      49  34  56 S8G16     29.67R
6HR MIN TEMP:  47; 6HR MAX TEMP:  56; 6HR PCP: TRACE;

RIVERTON       FAIR      49  33  54 S8        29.68S
6HR MIN TEMP:  48; 6HR MAX TEMP:  58;

CASPER         FAIR      53  31  42 SW23      29.67S
6HR MIN TEMP:  53; 6HR MAX TEMP:  62;

DOUGLAS        FAIR      58  25  28 W20G33    29.64R
6HR MIN TEMP:  58; 6HR MAX TEMP:  70;


$$
WYZ021-027>030-104>119-170100-
SOUTHERN WYOMING

CITY           SKY/WX    TMP DP  RH WIND       PRES   REMARKS
EVANSTON       CLOUDY    46  35  65 SW22G38   29.81R
6HR MIN TEMP:  43; 6HR MAX TEMP:  50; 6HR PCP:  0.01;

KEMMERER       DRIZZLE   41  32  70 SW17      29.81S
FORT BRIDGER   DRIZZLE   50  32  50 SW22G32   29.84S
ROCK SPRINGS   CLOUDY    48  27  44 SW8       29.80F
6HR MIN TEMP:  46; 6HR MAX TEMP:  57; 6HR PCP: TRACE;

DIXON          CLOUDY    53  24  32 SW12G21   29.89F
RAWLINS        FAIR      50  23  34 SW25G40   29.79S
6HR MIN TEMP:  50; 6HR MAX TEMP:  58; 6HR PCP: TRACE;

SARATOGA       FAIR      50  23  34 SW24G33   29.82S
LARAMIE        FAIR      48  23  37 SW18G24   29.81S
6HR MIN TEMP:  48; 6HR MAX TEMP:  62;

CHEYENNE       FAIR      56  23  27 SW10      29.78S
6HR MIN TEMP:  56; 6HR MAX TEMP:  68;

TORRINGTON     FAIR      68  25  19 W15G25    29.65R
6HR MIN TEMP:  60; 6HR MAX TEMP:  74;

PINE BLUFFS    FAIR      52  23  32 S10       29.74S

$$




USA.gov is the U.S. government's official web portal to all federal, state and local government web resources and services.